This demonstration page uses our WeatherBlox Daily Observations layout. Learn more.

Left ArrowRight Arrow

39.01783, -85.05884

Hourly Observations for March 18, 2020

Temp ( °F °C ) Dew Point ( °F °C ) Humidity (%) Winds ( mph kmh ) Pressure ( in mb ) Visibility ( mi km ) Precip ( " mm )
12:52 am 00:52 Partly Cloudy 41 5 34 1.1 76 76 SE 10 17 30.30 1026 10 16 0.00 0.00
1:52 am 01:52 Mostly Cloudy 40 4.4 33 0.6 77 77 SE 7 11 30.31 1027 10 16 0.00 0.00
2:52 am 02:52 Mostly Cloudy 38 3.3 32 0 79 79 E 7 11 30.31 1027 10 16 0.00 0.00
3:52 am 03:52 Mostly Cloudy 37 2.8 32 0 82 82 E 7 11 30.30 1026 10 16 0.00 0.00
4:52 am 04:52 Mostly Cloudy 39 3.9 34 1.1 82 82 ESE 7 11 30.27 1025 10 16 0.00 0.00
5:52 am 05:52 Partly Cloudy 39 3.9 35 1.7 86 86 ESE 10 17 30.25 1024 10 16 0.00 0.00
6:52 am 06:52 Mostly Cloudy 39 3.9 35 1.7 86 86 ESE 8 13 30.24 1024 9 14 0.00 0.00
7:20 am 07:20 Cloudy 39 3.9 35 1.7 86 86 E 8 13 30.27 1025 8 13 0.00 0.00
7:52 am 07:52 Cloudy 40 4.4 36 2.2 86 86 E 6 9 30.24 1024 8 13 0.00 0.00
8:22 am 08:22 Cloudy 42 5.6 37 2.8 82 82 ESE 10 17 30.25 1024 7 11 0.00 0.00
8:27 am 08:27 Cloudy with Light Rain 42 5.6 37 2.8 82 82 SE 8 13 30.26 1025 3 5 0.00 0.00
8:52 am 08:52 Cloudy with Light Rain 43 6.1 39 3.9 86 86 SSE 7 11 30.24 1024 6 10 0.02 0.51
9:52 am 09:52 Cloudy 44 6.7 41 5 89 89 SSE 9 15 30.24 1024 7 11 0.00 0.00
10:52 am 10:52 Cloudy 46 7.8 42 5.6 86 86 SE 13 20 30.20 1023 7 11 0.00 0.00
12:52 pm 12:52 Cloudy 49 9.4 45 7.2 86 86 ESE 9 15 30.14 1021 7 11 0.00 0.00
1:30 pm 13:30 Cloudy with Light Rain 50 10 47 8.3 89 89 SE 9 15 30.13 1020 4 6 0.01 0.25
1:52 pm 13:52 Cloudy with Nearby Thunderstorms 50 10 47 8.3 89 89 SSE 7 11 30.11 1020 3 4 0.03 0.76
2:00 pm 14:00 Cloudy with Nearby Thunderstorms 50 10 47 8.3 89 89 SSE 10 17 30.13 1020 1 2 0.02 0.51
2:16 pm 14:16 Cloudy with Nearby Thunderstorms 50 10 48 8.9 93 93 SE 9 15 30.12 1020 1 2 0.21 5.33
2:22 pm 14:22 Cloudy with Nearby Thunderstorms 50 10 48 8.9 93 93 SE 8 13 30.11 1020 3 4 0.26 6.60
2:26 pm 14:26 Cloudy with Light Rain 50 10 48 8.9 93 93 SE 8 13 30.10 1019 3 4 0.26 6.60
2:35 pm 14:35 Cloudy with Light Rain 51 10.6 49 9.4 92 92 SE 12 19 30.09 1019 5 8 0.27 6.86
2:48 pm 14:48 Cloudy with Rain 52 11 48 9 88 88 SSE 9 15 30.09 1019 3 4 0.27 6.86
2:52 pm 14:52 Cloudy with Heavy Rain 51 10.6 49 9.4 92 92 SE 8 13 30.08 1019 2 3 0.29 7.37
3:07 pm 15:07 Cloudy with Rain 51 10.6 49 9.4 92 92 Calm 30.08 1019 2 3 0.08 2.03
3:16 pm 15:16 Cloudy with Light Rain 52 11.1 49 9.4 89 89 SE 6 9 30.07 1018 2 3 0.09 2.29
3:52 pm 15:52 Cloudy with Rain 52 11.1 50 10 93 93 SE 6 9 30.04 1017 2 3 0.20 5.08
4:37 pm 16:37 Cloudy with Light Rain 53 11.7 51 10.6 93 93 SE 9 15 30.01 1016 6 10 0.11 2.79
4:42 pm 16:42 Cloudy with Light Rain 53 11.7 51 10.6 93 93 SE 10 17 30.01 1016 3 5 0.11 2.79
4:52 pm 16:52 Cloudy with Light Rain 54 12.2 52 11.1 93 93 SE 9 15 30.00 1016 3 5 0.12 3.05
5:16 pm 17:16 Cloudy with Rain 54 12.2 52 11.1 93 93 SE 8 13 29.98 1015 2 3 0.02 0.51
5:40 pm 17:40 Cloudy with Heavy Rain 55 12.8 54 12.2 96 96 S 8 13 29.99 1016 2 2 0.07 1.78
5:52 pm 17:52 Cloudy with Heavy Rain 56 13.3 54 12.2 93 93 SSW 9 15 29.98 1015 2 2 0.22 5.59
6:00 pm 18:00 Cloudy with Rain 57 13.9 55 12.8 93 93 SSW 12 19 30.00 1016 2 3 0.05 1.27
6:13 pm 18:13 Cloudy with Light Rain 58 14.4 56 13.3 93 93 S 6 9 29.99 1015 2 3 0.07 1.78
6:32 pm 18:32 Cloudy with Rain 59 15 57 13.9 93 93 SW 10 17 29.98 1015 2 3 0.09 2.29
6:43 pm 18:43 Cloudy with Light Rain 59 15 57 13.9 93 93 SSW 8 13 29.98 1015 5 8 0.11 2.79
6:52 pm 18:52 Cloudy with Light Rain 59 15 57 13.9 93 93 SW 8 13 29.99 1016 6 10 0.12 3.05
7:28 pm 19:28 Cloudy with Light Rain 60 15.6 57 13.9 90 90 SW 12 19 29.99 1016 6 10 0.00 0.00
7:45 pm 19:45 Cloudy with Light Rain 60 15.6 58 14.4 93 93 SW 12 19 29.99 1016 9 14 0.00 0.00
7:52 pm 19:52 Cloudy with Light Rain 60 15.6 58 14.4 93 93 SSW 10 17 29.99 1016 10 16 0.00 0.00
8:25 pm 20:25 Cloudy with Light Rain 61 16.1 58 14.4 90 90 SSW 12 19 29.99 1016 7 11 0.02 0.51
8:52 pm 20:52 Cloudy with Light Rain 61 16.1 58 14.4 90 90 SSW 12 19 30.00 1016 8 13 0.04 1.02
9:43 pm 21:43 Cloudy 61 16.1 59 15 93 93 SSW 15 24 30.00 1016 8 13 0.01 0.25
9:52 pm 21:52 Cloudy 61 16.1 59 15 93 93 SW 10 17 30.00 1016 8 13 0.01 0.25
10:52 pm 22:52 Cloudy with Light Rain 61 16.1 58 14.4 90 90 W 13 20 30.03 1017 5 8 0.02 0.51
11:38 pm 23:38 Cloudy with Light Rain 60 15.6 57 13.9 90 90 W 13 20 30.04 1017 8 13 0.01 0.25
11:52 pm 23:52 Cloudy with Light Rain 60 15.6 57 13.9 90 90 W 15 24 30.05 1018 10 16 0.01 0.25

Powered by AerisWeather